Location: Pagani
(40.7500°N, 14.6167°E)
Time: 05:22:07
(UTC+00:00)

Cosmos 1486 Rocket - Pass Details

Date: 15 May 2026
Orbit: 754 x 779 km, 74.1° (Epoch: 6 June)

Event Time Altitude Azimuth Distance (km) Brightness Sun altitude
Rises 20:14:48 0° 344° (NNW) 3,246 8.4 -19.2°
Reaches altitude 10° 20:17:14 10° 349° (N) 2,319 7.4 -19.5°
Maximum altitude 20:22:24 55° 67° (ENE) 926 4.3 -20.2°
Enters shadow 20:23:56 40° 120° (ESE) 1,123 4.4 -20.4°
